Location: Allentsteig
(48.6833°N, 15.3167°E)
Time: 11:21:11
(UTC+00:00)

Resurs 01 Rocket - Pass Details

Date: 18 September 2020
Orbit: 633 x 645 km, 98.0° (Epoch: 24 October)

Event Time Altitude Azimuth Distance (km) Brightness Sun altitude
Exits shadow 19:19:15 64° 127° (SE) 718 1.5 -22.0°
Maximum altitude 19:19:49 74° 73° (ENE) 677 1.5 -22.1°
Drops below altitude 10° 19:24:17 10° 350° (N) 2,053 4.7 -22.7°
Sets 19:26:30 0° 348° (NNW) 2,967 5.7 -23.1°
